Apalachicola, FL

1:00 PM EST on February 14, 2016 (GMT -0500)
Apalachicola Municipal

Weather History for KAAF - September, 2013

Change the Weather History Date:

Friday, September 13, 2013

  Actual Average Record
Temperature  
Mean Temperature 82 °F 80 °F  
Max Temperature 90 °F 88 °F 93 °F (1991)
Min Temperature 73 °F 71 °F 59 °F (2015)
Degree Days  
Heating Degree Days 0    
Month to date heating degree days 0  
Since 1 July heating degree days 0  
Cooling Degree Days 17    
Month to date cooling degree days 225  
Year to date cooling degree days 2145  
Growing Degree Days 32 (Base 50)    
Moisture  
Dew Point 70 °F    
Average Humidity 72    
Maximum Humidity 93    
Minimum Humidity 50    
Precipitation  
Precipitation 0.00 in 0.24 in 6.86 in (1932)
Month to date precipitation 0.38 3.16  
Year to date precipitation 43.76 43.10  
Sea Level Pressure  
Sea Level Pressure 29.88 in    
Wind  
Wind Speed 4 mph (West)    
Max Wind Speed 13 mph    
Max Gust Speed 16 mph    
Visibility 10 miles    
Events      
T = Trace of Precipitation, MM = Missing Value Source: NWS Daily Summary

Daily Weather History Graph

Daily Weather History Graph

Search for Another Location

Airport or City:

Trip Planner

Search our weather history database for the weather conditions in past years. The results will help you decide how hot, cold, wet, or windy it might be!

Date:

Astronomy

Sep. 13, 2013 Rise Set
Actual Time 7:23 AM EDT 7:47 PM EDT
Civil Twilight 6:59 AM EDT 8:11 PM EDT
Nautical Twilight 6:31 AM EDT 8:39 PM EDT
Astronomical Twilight 6:03 AM EDT 9:07 PM EDT
Moon 3:18 PM EDT (9/13) 1:11 AM EDT (9/13)
Length of Visible Light 13h 11m
Length of Day
12h 23m
First Quarter, 61% of the Moon is Illuminated
Sep 13
First Quarter
Sep 19
Full
Sep 26
Last Quarter
Oct 4
New
Oct 11
First Quarter

Hourly Weather History & Observations

Time (EDT) Temp. Heat Index Dew Point Humidity Pressure Visibility Wind Dir Wind Speed Gust Speed Precip Events Conditions
12:53 AM 75.0 °F - 70.0 °F 84% 29.93 in 10.0 mi Calm Calm - N/A   Clear
1:53 AM 73.9 °F - 70.0 °F 87% 29.92 in 10.0 mi Calm Calm - N/A   Clear
2:53 AM 73.9 °F - 70.0 °F 87% 29.91 in 10.0 mi Calm Calm - N/A   Clear
3:53 AM 73.9 °F - 69.1 °F 85% 29.89 in 10.0 mi Calm Calm - N/A   Clear
4:53 AM 73.0 °F - 69.1 °F 87% 29.88 in 10.0 mi NNW 3.5 mph - N/A   Clear
5:53 AM 73.9 °F - 70.0 °F 87% 29.88 in 10.0 mi Calm Calm - N/A   Clear
6:53 AM 73.9 °F - 71.1 °F 91% 29.88 in 10.0 mi North 3.5 mph - N/A   Clear
7:53 AM 75.9 °F - 72.0 °F 87% 29.90 in 10.0 mi North 5.8 mph - N/A   Clear
8:53 AM 80.1 °F 84.2 °F 73.0 °F 79% 29.91 in 10.0 mi North 5.8 mph - N/A   Clear
9:53 AM 84.0 °F 90.2 °F 73.0 °F 69% 29.92 in 10.0 mi North 8.1 mph - N/A   Clear
10:53 AM 88.0 °F 93.8 °F 71.1 °F 57% 29.92 in 10.0 mi Variable 3.5 mph - N/A   Clear
11:53 AM 90.0 °F 93.6 °F 68.0 °F 48% 29.92 in 10.0 mi Variable 3.5 mph - N/A   Clear
12:53 PM 88.0 °F 92.9 °F 70.0 °F 55% 29.91 in 10.0 mi South 6.9 mph - N/A   Mostly Cloudy
1:53 PM 89.1 °F 92.9 °F 68.0 °F 50% 29.88 in 10.0 mi South 6.9 mph - N/A   Mostly Cloudy
2:53 PM 90.0 °F 93.6 °F 68.0 °F 48% 29.86 in 10.0 mi SSW 8.1 mph - N/A   Clear
3:53 PM 89.1 °F 94.1 °F 70.0 °F 53% 29.84 in 10.0 mi SSW 9.2 mph - N/A   Clear
4:53 PM 89.1 °F 96.0 °F 72.0 °F 57% 29.83 in 10.0 mi SSW 8.1 mph - N/A   Clear
5:53 PM 88.0 °F 92.1 °F 69.1 °F 53% 29.82 in 10.0 mi WSW 9.2 mph - N/A   Clear
6:53 PM 87.1 °F 92.0 °F 70.0 °F 57% 29.83 in 10.0 mi WSW 9.2 mph - N/A   Clear
7:53 PM 84.0 °F 87.8 °F 69.1 °F 61% 29.83 in 10.0 mi WSW 5.8 mph - N/A   Clear
8:53 PM 81.0 °F 84.4 °F 70.0 °F 69% 29.84 in 10.0 mi West 4.6 mph - 0.01 in   Clear
9:53 PM 80.1 °F 82.9 °F 69.1 °F 69% 29.86 in 10.0 mi Calm Calm - N/A   Clear
10:53 PM 79.0 °F - 69.1 °F 72% 29.86 in 10.0 mi Calm Calm - N/A   Clear
11:53 PM 78.1 °F - 70.0 °F 76% 29.87 in 10.0 mi Calm Calm - N/A   Clear